| time (UTC) | temp F | wind direction | speed knots | gust knots | rain 1hr in | rain 24hr in | rain mn in | humidity % | barometer mb |
| 20260509054959 | 61 | 177 | 1.7 | 7.0 | 0.00 | 0.00 | 0.00 | 51 | 1010.9 |
| 20260509053946 | 61 | 253 | 2.6 | 7.0 | 0.00 | 0.00 | 0.00 | 51 | 1011.0 |
| 20260509051822 | 60 | 217 | 2.6 | 7.0 | 0.00 | 0.00 | 0.00 | 52 | 1011.0 |
| 20260509050811 | 60 | 198 | 1.7 | 7.8 | 0.00 | 0.00 | 0.00 | 52 | 1011.0 |
| 20260509045816 | 60 | 182 | 1.7 | 7.8 | 0.00 | 0.00 | 0.00 | 53 | 1010.9 |
| 20260509044743 | 60 | 196 | 0.9 | 5.2 | 0.00 | 0.00 | 0.00 | 55 | 1011.0 |
| 20260509043736 | 60 | 136 | 1.7 | 6.1 | 0.00 | 0.00 | 0.00 | 54 | 1011.0 |
| 20260509042716 | 60 | 166 | 0.9 | 6.1 | 0.00 | 0.00 | 0.00 | 54 | 1011.1 |
| 20260509041718 | 61 | 153 | 0.9 | 6.1 | 0.00 | 0.00 | 0.00 | 54 | 1011.1 |
| 20260509040715 | 61 | 163 | 1.7 | 7.0 | 0.00 | 0.00 | 0.00 | 52 | 1011.0 |
| 20260509035713 | 61 | 189 | 2.6 | 7.0 | 0.00 | 0.00 | 0.00 | 51 | 1011.1 |
| 20260509034715 | 61 | 189 | 1.7 | 7.8 | 0.00 | 0.00 | 0.00 | 51 | 1011.2 |
| 20260509032607 | 62 | 190 | 1.7 | 7.0 | 0.00 | 0.00 | 0.00 | 49 | 1011.1 |
| 20260509031624 | 62 | 189 | 1.7 | 6.1 | 0.00 | 0.00 | 0.00 | 49 | 1011.3 |
| 20260509030644 | 63 | 199 | 1.7 | 6.1 | 0.00 | 0.00 | 0.00 | 48 | 1011.4 |
| 20260509025657 | 63 | 147 | 1.7 | 5.2 | 0.00 | 0.00 | 0.00 | 48 | 1011.4 |
| 20260509024631 | 63 | 175 | 1.7 | 5.2 | 0.00 | 0.00 | 0.00 | 47 | 1011.4 |
| 20260509022537 | 64 | 184 | 0.9 | 4.3 | 0.00 | 0.00 | 0.00 | 46 | 1011.4 |
| 20260509021530 | 64 | 175 | 0.9 | 4.3 | 0.00 | 0.00 | 0.00 | 46 | 1011.3 |
| 20260509020502 | 64 | 175 | 0.9 | 4.3 | 0.00 | 0.00 | 0.00 | 45 | 1011.3 |
| 20260509014401 | 65 | 167 | 0.9 | 6.1 | 0.00 | 0.00 | 0.00 | 45 | 1011.1 |
| 20260509013351 | 65 | 188 | 1.7 | 6.1 | 0.00 | 0.00 | 0.00 | 44 | 1011.1 |
| 20260509012339 | 65 | 153 | 1.7 | 6.1 | 0.00 | 0.00 | 0.00 | 43 | 1011.2 |
| 20260509011306 | 66 | 188 | 1.7 | 6.1 | 0.00 | 0.00 | 0.00 | 43 | 1011.1 |
| 20260509010240 | 66 | 167 | 0.9 | 7.0 | 0.00 | 0.00 | 0.00 | 42 | 1011.0 |
| 20260509005206 | 67 | 205 | 2.6 | 7.0 | 0.00 | 0.00 | 0.00 | 41 | 1011.0 |
| 20260509004202 | 67 | 194 | 1.7 | 4.3 | 0.00 | 0.00 | 0.00 | 40 | 1010.9 |
| 20260509003200 | 68 | 217 | 1.7 | 7.0 | 0.00 | 0.00 | 0.00 | 39 | 1010.8 |
| 20260509002221 | 68 | 254 | 2.6 | 7.0 | 0.00 | 0.00 | 0.00 | 38 | 1010.8 |
| 20260509000147 | 69 | 258 | 1.7 | 7.0 | 0.00 | 0.00 | 0.00 | 37 | 1010.5 |
| 20260508235120 | 69 | 213 | 2.6 | 7.0 | 0.00 | 0.00 | 0.00 | 37 | 1010.4 |
| 20260508234128 | 69 | 172 | 1.7 | 6.1 | 0.00 | 0.00 | 0.00 | 36 | 1010.4 |
| 20260508233104 | 69 | 229 | 1.7 | 8.7 | 0.00 | 0.00 | 0.00 | 37 | 1010.4 |
| 20260508232127 | 69 | 188 | 3.5 | 8.7 | 0.00 | 0.00 | 0.00 | 36 | 1010.3 |
| 20260508231113 | 70 | 209 | 0.9 | 5.2 | 0.00 | 0.00 | 0.00 | 36 | 1010.3 |
| 20260508230048 | 70 | 205 | 3.5 | 8.7 | 0.00 | 0.00 | 0.00 | 35 | 1010.2 |
| 20260508225036 | 70 | 159 | 1.7 | 8.7 | 0.00 | 0.00 | 0.00 | 34 | 1010.0 |
| 20260508224016 | 71 | 190 | 1.7 | 5.2 | 0.00 | 0.00 | 0.00 | 31 | 1010.1 |
| 20260508222952 | 71 | 182 | 1.7 | 5.2 | 0.00 | 0.00 | 0.00 | 32 | 1010.0 |
| 20260508221958 | 71 | 244 | 1.7 | 7.0 | 0.00 | 0.00 | 0.00 | 32 | 1010.2 |
| 20260508220925 | 71 | 164 | 1.7 | 7.0 | 0.00 | 0.00 | 0.00 | 30 | 1010.2 |
| 20260508215934 | 72 | 275 | 0.9 | 0.0 | 0.00 | 0.00 | 0.00 | 30 | 1010.2 |
| 20260508211528 | 75 | 325 | 1.7 | 6.1 | 0.00 | 0.00 | 0.00 | 28 | 1010.2 |
| 20260508210506 | 74 | 190 | 1.7 | 7.0 | 0.00 | 0.00 | 0.00 | 28 | 1010.2 |
| 20260508205528 | 75 | 198 | 2.6 | 10.4 | 0.00 | 0.00 | 0.00 | 28 | 1010.2 |
| 20260508204536 | 75 | 221 | 3.5 | 10.4 | 0.00 | 0.00 | 0.00 | 29 | 1010.3 |
| 20260508203556 | 76 | 327 | 1.7 | 8.7 | 0.00 | 0.00 | 0.00 | 27 | 1010.4 |
| 20260508202619 | 75 | 264 | 1.7 | 7.0 | 0.00 | 0.00 | 0.00 | 28 | 1010.4 |
| 20260508201545 | 75 | 279 | 2.6 | 9.6 | 0.00 | 0.00 | 0.00 | 26 | 1010.5 |
| 20260508200545 | 75 | 335 | 3.5 | 11.3 | 0.00 | 0.00 | 0.00 | 27 | 1010.7 |
| 20260508195520 | 74 | 232 | 3.5 | 11.3 | 0.00 | 0.00 | 0.00 | 28 | 1010.7 |
| 20260508194508 | 74 | 205 | 4.3 | 9.6 | 0.00 | 0.00 | 0.00 | 27 | 1011.0 |
| 20260508193528 | 74 | 246 | 2.6 | 10.4 | 0.00 | 0.00 | 0.00 | 28 | 1011.0 |
| 20260508192542 | 74 | 211 | 3.5 | 10.4 | 0.00 | 0.00 | 0.00 | 27 | 1011.3 |
| 20260508191520 | 76 | 293 | 1.7 | 6.1 | 0.00 | 0.00 | 0.00 | 27 | 1011.4 |
| 20260508190522 | 76 | 211 | 1.7 | 8.7 | 0.00 | 0.00 | 0.00 | 27 | 1011.5 |
| 20260508185525 | 75 | 287 | 3.5 | 9.6 | 0.00 | 0.00 | 0.00 | 29 | 1011.8 |
| 20260508184534 | 75 | 300 | 2.6 | 9.6 | 0.00 | 0.00 | 0.00 | 27 | 1011.9 |
| 20260508183550 | 76 | 271 | 4.3 | 12.2 | 0.00 | 0.00 | 0.00 | 29 | 1012.0 |
| 20260508182559 | 75 | 274 | 2.6 | 12.2 | 0.00 | 0.00 | 0.00 | 27 | 1012.0 |
| 20260508181539 | 74 | 257 | 0.9 | 11.3 | 0.00 | 0.00 | 0.00 | 30 | 1012.0 |
| 20260508180524 | 75 | 260 | 4.3 | 11.3 | 0.00 | 0.00 | 0.00 | 28 | 1012.3 |
| 20260508174435 | 76 | 273 | 3.5 | 12.2 | 0.00 | 0.00 | 0.00 | 27 | 1012.3 |
| 20260508172323 | 74 | 269 | 1.7 | 7.0 | 0.00 | 0.00 | 0.00 | 28 | 1012.6 |
| 20260508171315 | 74 | 302 | 1.7 | 8.7 | 0.00 | 0.00 | 0.00 | 29 | 1012.7 |
| 20260508170321 | 74 | 291 | 3.5 | 8.7 | 0.00 | 0.00 | 0.00 | 29 | 1013.0 |
| 20260508165339 | 75 | 265 | 1.7 | 7.0 | 0.00 | 0.00 | 0.00 | 29 | 1013.1 |
| 20260508163211 | 74 | 309 | 4.3 | 11.3 | 0.00 | 0.00 | 0.00 | 29 | 1013.4 |
| 20260508161053 | 73 | 296 | 1.7 | 8.7 | 0.00 | 0.00 | 0.00 | 29 | 1013.7 |
| 20260508160019 | 74 | 250 | 2.6 | 8.7 | 0.00 | 0.00 | 0.00 | 29 | 1013.7 |
| 20260508155019 | 73 | 324 | 2.6 | 9.6 | 0.00 | 0.00 | 0.00 | 29 | 1013.8 |
| 20260508154033 | 73 | 338 | 2.6 | 11.3 | 0.00 | 0.00 | 0.00 | 29 | 1013.9 |
| 20260508153037 | 72 | 304 | 2.6 | 11.3 | 0.00 | 0.00 | 0.00 | 30 | 1014.1 |
| 20260508152046 | 72 | 284 | 0.9 | 7.0 | 0.00 | 0.00 | 0.00 | 30 | 1014.1 |
| 20260508151110 | 71 | 316 | 1.7 | 6.1 | 0.00 | 0.00 | 0.00 | 31 | 1014.3 |
| 20260508150049 | 71 | 309 | 0.9 | 7.8 | 0.00 | 0.00 | 0.00 | 31 | 1014.4 |
| 20260508143927 | 70 | 348 | 1.7 | 7.8 | 0.00 | 0.00 | 0.00 | 31 | 1014.5 |
| 20260508141817 | 69 | 280 | 0.9 | 6.1 | 0.00 | 0.00 | 0.00 | 34 | 1014.7 |
| 20260508140830 | 68 | 250 | 0.0 | 7.0 | 0.00 | 0.00 | 0.00 | 34 | 1014.7 |
| 20260508135801 | 68 | 245 | 1.7 | 7.0 | 0.00 | 0.00 | 0.00 | 33 | 1014.7 |
| 20260508134730 | 66 | 250 | 0.0 | 7.0 | 0.00 | 0.00 | 0.00 | 36 | 1014.8 |
| 20260508133736 | 65 | 279 | 1.7 | 7.0 | 0.00 | 0.00 | 0.00 | 35 | 1014.9 |
| 20260508132721 | 65 | 264 | 0.9 | 4.3 | 0.00 | 0.00 | 0.00 | 39 | 1015.0 |
| 20260508131647 | 64 | 331 | 0.9 | 3.5 | 0.00 | 0.00 | 0.00 | 39 | 1015.2 |
| 20260508130710 | 64 | 289 | 0.0 | 3.5 | 0.00 | 0.00 | 0.00 | 41 | 1015.0 |
| 20260508125649 | 63 | 309 | 0.9 | 3.5 | 0.00 | 0.00 | 0.00 | 42 | 1015.1 |
| 20260508124624 | 61 | 264 | 0.0 | 2.6 | 0.00 | 0.00 | 0.00 | 44 | 1015.1 |
| 20260508123634 | 60 | 262 | 0.0 | 0.9 | 0.00 | 0.00 | 0.00 | 47 | 1015.0 |
| 20260508121505 | 58 | 324 | 0.0 | 4.3 | 0.00 | 0.00 | 0.00 | 53 | 1014.9 |
| 20260508112034 | 46 | 320 | 0.0 | 0.0 | 0.00 | 0.00 | 0.00 | 85 | 1014.3 |
| 20260508111037 | 44 | 320 | 0.0 | 0.0 | 0.00 | 0.00 | 0.00 | 85 | 1014.2 |
| 20260508103750 | 43 | 320 | 0.0 | 0.0 | 0.00 | 0.00 | 0.00 | 86 | 1013.9 |
| 20260508102809 | 43 | 320 | 0.0 | 0.0 | 0.00 | 0.00 | 0.00 | 84 | 1013.8 |
| 20260508101742 | 43 | 320 | 0.0 | 0.0 | 0.00 | 0.00 | 0.00 | 83 | 1013.7 |
| 20260508100755 | 44 | 320 | 0.0 | 0.0 | 0.00 | 0.00 | 0.00 | 83 | 1013.6 |
| 20260508095819 | 44 | 320 | 0.0 | 0.0 | 0.00 | 0.00 | 0.00 | 81 | 1013.5 |
| 20260508092544 | 45 | 320 | 0.0 | 0.0 | 0.00 | 0.00 | 0.00 | 78 | 1013.4 |
| 20260508091522 | 46 | 320 | 0.0 | 0.0 | 0.00 | 0.00 | 0.00 | 77 | 1013.4 |
| 20260508090520 | 46 | 320 | 0.0 | 0.0 | 0.00 | 0.00 | 0.00 | 77 | 1013.3 |
| 20260508085453 | 47 | 320 | 0.0 | 0.0 | 0.00 | 0.00 | 0.00 | 80 | 1013.2 |
| 20260508083336 | 47 | 320 | 0.0 | 0.0 | 0.00 | 0.00 | 0.00 | 79 | 1013.0 |
| 20260508082334 | 47 | 320 | 0.0 | 0.0 | 0.00 | 0.00 | 0.00 | 79 | 1012.8 |
| 20260508081316 | 48 | 320 | 0.0 | 0.0 | 0.00 | 0.00 | 0.00 | 77 | 1012.8 |
| 20260508080304 | 48 | 320 | 0.0 | 0.0 | 0.00 | 0.00 | 0.00 | 78 | 1012.7 |
| 20260508075300 | 48 | 320 | 0.0 | 0.0 | 0.00 | 0.00 | 0.00 | 76 | 1012.5 |
| 20260508074302 | 49 | 320 | 0.0 | 0.0 | 0.00 | 0.00 | 0.00 | 76 | 1012.4 |
| 20260508073322 | 49 | 320 | 0.0 | 0.0 | 0.00 | 0.00 | 0.00 | 75 | 1012.3 |
| 20260508072311 | 50 | 320 | 0.0 | 0.0 | 0.00 | 0.00 | 0.00 | 76 | 1012.1 |
| 20260508070157 | 51 | 320 | 0.0 | 0.0 | 0.00 | 0.00 | 0.00 | 70 | 1011.9 |
| 20260508065210 | 52 | 320 | 0.0 | 0.0 | 0.00 | 0.00 | 0.00 | 70 | 1011.8 |
| 20260508064201 | 52 | 320 | 0.0 | 0.0 | 0.00 | 0.00 | 0.00 | 69 | 1011.6 |
| 20260508063200 | 52 | 320 | 0.0 | 0.0 | 0.00 | 0.00 | 0.00 | 69 | 1011.5 |
| 20260508062143 | 52 | 320 | 0.0 | 3.5 | 0.00 | 0.00 | 0.00 | 69 | 1011.4 |
| 20260508061205 | 51 | 322 | 0.0 | 0.0 | 0.00 | 0.00 | 0.00 | 72 | 1011.4 |
| 20260508060158 | 51 | 269 | 0.0 | 2.6 | 0.00 | 0.00 | 0.00 | 80 | 1011.4 |